Location: Unspecified
(0.0000°N, 0.0000°E)
Time: 01:22:13
(UTC+00:00)

Vanguard 2 Rocket - Pass Details

Date: 24 October 2025
Orbit: 553 x 3286 km, 32.9° (Epoch: 10 February)

Event Time Altitude Azimuth Distance (km) Brightness Sun altitude
Rises 11:13:03 0° 267° (W) 5,811 10.9 75.8°
Reaches altitude 10° 11:20:22 10° 243° (WSW) 4,061 10.4 76.7°
Maximum altitude 11:24:28 13° 219° (SW) 3,380 10.1 77.1°
Drops below altitude 10° 11:27:52 10° 194° (SSW) 3,213 10.0 77.4°
Sets 11:32:13 0° 165° (SSE) 3,676 10.2 77.7°
